Hlavní strana
METAR-TAF:

METAR-TAF

Letiště :

Franklin County Airport

Louisburg, Severní Karolína, Spojené státy americké

zeměpisná šířka: 36-01-24N, zeměpisná délka: 078-19-49W, výška: 113 m

Aktuální stav počasí

Zpráva byla vytvořena před 16 minutami, v 09:35 UTC
Západoseverozápadní vítr 6 kt
Teplota 20°C
Vlhkost vzduchu 28%
Tlak 1016 hPa
Viditelnost: 16.1 km
Jasno

METAR: KLHZ 300935Z AUTO 29006KT 10SM CLR 20/01 A3001 RMK AO2

Čas: 05:51 (09:51 UTC)


TAF: chybějící

Stav a předpovědi počasí z více než 4 000 letišť (zprávy METAR a TAF).

Červené a žluté tečky na mapě představují dostupné meteorologické stanice.

Když kurzor umístíte na tečku, zobrazí se název stanice.

Pak kliknutím zobrazíte stav a předpověď počasí.

Chcete-li změnit mapu, kliknutím na zelené tlačítko se znaménkem +mapu přiblížíte, kliknutím na zelené tlačítko se znaménkem – mapu oddálíte a kliknutím na zelené šipky přejdete na sousední mapy.


METAR-TAF: